CW4221 Weather Reports


Display with metric or nautical units.
time (UTC)temp
F
wind
direction
speed
MPH
gust
MPH
rain 1hr
in
rain 24hr
in
rain mn
in
humidity
%
barometer
mb
20260905204823 100 343 0.0 7.0 0.00 0.00 0.00 38 1014.3
20260905204323 99 254 1.0 7.0 0.00 0.00 0.00 38 1014.4
20260905203820 99 256 1.0 6.0 0.00 0.00 0.00 38 1014.5
20260905203337 99 250 4.0 6.0 0.00 0.00 0.00 36 1014.6
20260905202832 100 17 0.0 2.0 0.00 0.00 0.00 37 1014.7
20260905202326 99 24 0.0 2.0 0.00 0.00 0.00 39 1014.7
20260905201822 96 24 0.0 2.0 0.00 0.00 0.00 41 1014.7
20260905201319 98 24 0.0 3.0 0.00 0.00 0.00 42 1014.8
20260905200814 99 24 1.0 3.0 0.00 0.00 0.00 39 1015.0
20260905200316 100 89 1.0 3.0 0.00 0.00 0.00 40 1015.0
20260905195811 100 19 1.0 5.0 0.00 0.00 0.00 41 1015.0
20260905195328 99 330 2.0 5.0 0.00 0.00 0.00 40 1015.0
20260905194823 99 360 2.0 4.0 0.00 0.00 0.00 44 1015.1
20260905194319 99 360 1.0 8.0 0.00 0.00 0.00 41 1015.2
20260905193815 99 360 3.0 8.0 0.00 0.00 0.00 44 1015.2
20260905193312 99 9 3.0 6.0 0.00 0.00 0.00 41 1015.3
20260905192811 99 24 2.0 4.0 0.00 0.00 0.00 43 1015.4
20260905192327 99 22 1.0 3.0 0.00 0.00 0.00 41 1015.4
20260905191822 98 12 1.0 2.0 0.00 0.00 0.00 42 1015.4
20260905191318 98 288 1.0 4.0 0.00 0.00 0.00 41 1015.5
20260905190814 98 120 2.0 6.0 0.00 0.00 0.00 45 1015.6
20260905190331 97 150 2.0 6.0 0.00 0.00 0.00 43 1015.8
20260905185826 98 70 2.0 4.0 0.00 0.00 0.00 44 1015.8
20260905185323 98 24 0.0 2.0 0.00 0.00 0.00 42 1016.0
20260905184823 98 115 1.0 4.0 0.00 0.00 0.00 42 1016.1
20260905184318 98 32 1.0 6.0 0.00 0.00 0.00 46 1016.1
20260905183813 97 29 2.0 6.0 0.00 0.00 0.00 44 1016.2
20260905183310 98 24 1.0 5.0 0.00 0.00 0.00 44 1016.2
20260905182827 96 355 1.0 3.0 0.00 0.00 0.00 45 1016.2
20260905182324 97 324 1.0 4.0 0.00 0.00 0.00 45 1016.3
20260905181840 96 128 1.0 4.0 0.00 0.00 0.00 46 1016.3
20260905181314 97 23 2.0 4.0 0.00 0.00 0.00 46 1016.4
20260905180814 97 296 2.0 8.0 0.00 0.00 0.00 47 1016.4
20260905180310 97 341 4.0 6.0 0.00 0.00 0.00 46 1016.6
20260905175826 96 29 4.0 6.0 0.00 0.00 0.00 44 1016.6
20260905175321 96 345 1.0 6.0 0.00 0.00 0.00 44 1016.7
20260905174838 97 27 3.0 8.0 0.00 0.00 0.00 45 1016.7
20260905174313 97 10 2.0 8.0 0.00 0.00 0.00 45 1016.9
20260905173829 98 339 2.0 6.0 0.00 0.00 0.00 45 1016.9
20260905173345 97 344 1.0 3.0 0.00 0.00 0.00 45 1016.9
20260905172820 97 355 1.0 3.0 0.00 0.00 0.00 47 1017.0
20260905172321 97 26 1.0 4.0 0.00 0.00 0.00 44 1017.0
20260905171817 96 9 1.0 8.0 0.00 0.00 0.00 49 1017.1
20260905171314 96 323 3.0 8.0 0.00 0.00 0.00 48 1017.1
20260905170810 95 345 1.0 5.0 0.00 0.00 0.00 48 1017.2
20260905170326 95 9 3.0 6.0 0.00 0.00 0.00 48 1017.2
20260905165822 95 344 3.0 6.0 0.00 0.00 0.00 48 1017.3
20260905165318 96 334 1.0 2.0 0.00 0.00 0.00 50 1017.3
20260905164819 96 334 1.0 6.0 0.00 0.00 0.00 49 1017.4
20260905164316 94 334 2.0 6.0 0.00 0.00 0.00 49 1017.3
20260905163813 94 321 1.0 5.0 0.00 0.00 0.00 49 1017.4
20260905163349 94 355 2.0 6.0 0.00 0.00 0.00 50 1017.4
20260905162824 94 345 1.0 5.0 0.00 0.00 0.00 51 1017.4
20260905162320 94 344 2.0 5.0 0.00 0.00 0.00 53 1017.4
20260905161816 93 5 3.0 5.0 0.00 0.00 0.00 51 1017.5
20260905161313 94 324 1.0 8.0 0.00 0.00 0.00 51 1017.6
20260905160813 93 346 3.0 8.0 0.00 0.00 0.00 51 1017.6
20260905160328 93 314 3.0 8.0 0.00 0.00 0.00 52 1017.6
20260905155845 92 10 3.0 6.0 0.00 0.00 0.00 54 1017.6
20260905155319 92 346 0.0 5.0 0.00 0.00 0.00 54 1017.6
20260905154835 92 263 1.0 5.0 0.00 0.00 0.00 53 1017.5
20260905154310 92 339 2.0 8.0 0.00 0.00 0.00 54 1017.6
20260905153826 91 344 2.0 8.0 0.00 0.00 0.00 55 1017.5
20260905153323 91 9 3.0 8.0 0.00 0.00 0.00 55 1017.4
20260905152823 91 257 1.0 10.0 0.00 0.00 0.00 54 1017.4
20260905152319 91 250 5.0 10.0 0.00 0.00 0.00 53 1017.4
20260905151815 90 294 1.0 7.0 0.00 0.00 0.00 57 1017.3
20260905151312 89 251 3.0 8.0 0.00 0.00 0.00 55 1017.4
20260905150809 90 275 2.0 8.0 0.00 0.00 0.00 56 1017.5
20260905150325 90 273 1.0 4.0 0.00 0.00 0.00 58 1017.4
20260905145821 89 355 1.0 5.0 0.00 0.00 0.00 58 1017.3
20260905145321 89 271 3.0 5.0 0.00 0.00 0.00 56 1017.2
20260905144818 89 245 1.0 4.0 0.00 0.00 0.00 58 1017.2
20260905144334 88 285 1.0 4.0 0.00 0.00 0.00 58 1017.1
20260905143810 87 309 0.0 4.0 0.00 0.00 0.00 61 1017.1
20260905143326 86 256 2.0 4.0 0.00 0.00 0.00 64 1017.0
20260905142824 85 273 0.0 3.0 0.00 0.00 0.00 69 1017.0
20260905142320 84 273 1.0 3.0 0.00 0.00 0.00 68 1017.0
20260905141817 83 230 0.0 3.0 0.00 0.00 0.00 68 1017.0
20260905141318 82 215 1.0 4.0 0.00 0.00 0.00 68 1017.0
20260905140814 82 233 1.0 3.0 0.00 0.00 0.00 70 1017.0
20260905140330 82 253 2.0 4.0 0.00 0.00 0.00 70 1017.0
20260905135824 81 244 2.0 4.0 0.00 0.00 0.00 70 1017.0
20260905135321 81 263 2.0 3.0 0.00 0.00 0.00 71 1017.1
20260905134819 80 273 1.0 3.0 0.00 0.00 0.00 73 1017.2
20260905134314 80 233 1.0 4.0 0.00 0.00 0.00 74 1017.2
20260905133814 80 247 2.0 4.0 0.00 0.00 0.00 74 1017.2
20260905133331 79 194 0.0 2.0 0.00 0.00 0.00 75 1017.1
20260905132825 79 151 0.0 2.0 0.00 0.00 0.00 76 1017.1
20260905132321 78 151 0.0 2.0 0.00 0.00 0.00 77 1017.0
20260905131816 77 104 0.0 2.0 0.00 0.00 0.00 78 1017.0
20260905131313 76 104 0.0 2.0 0.00 0.00 0.00 82 1016.9
20260905130809 75 104 0.0 2.0 0.00 0.00 0.00 83 1016.9
20260905130325 75 104 0.0 2.0 0.00 0.00 0.00 85 1016.9
20260905125821 74 104 0.0 2.0 0.00 0.00 0.00 84 1016.9
20260905125322 73 104 0.0 0.0 0.00 0.00 0.00 85 1016.8
20260905124819 72 104 0.0 0.0 0.00 0.00 0.00 87 1016.8
20260905124315 72 104 0.0 0.0 0.00 0.00 0.00 89 1016.8
20260905123811 71 104 0.0 0.0 0.00 0.00 0.00 90 1016.8
20260905123327 70 104 0.0 0.0 0.00 0.00 0.00 89 1016.7
20260905122823 70 104 0.0 2.0 0.00 0.00 0.00 90 1016.6
20260905122319 70 104 0.0 2.0 0.00 0.00 0.00 89 1016.5
20260905121839 70 104 0.0 2.0 0.00 0.00 0.00 90 1016.5
20260905121314 69 104 0.0 0.0 0.00 0.00 0.00 90 1016.4
20260905120830 69 104 0.0 0.0 0.00 0.00 0.00 91 1016.5
20260905120344 68 104 0.0 0.0 0.00 0.00 0.00 91 1016.5
20260905115819 68 104 0.0 0.0 0.00 0.00 0.00 90 1016.6
20260905115335 69 104 0.0 0.0 0.00 0.00 0.00 90 1016.5
20260905114809 69 104 0.0 0.0 0.00 0.00 0.00 91 1016.4
20260905114325 69 104 0.0 0.0 0.00 0.00 0.00 90 1016.3
20260905113841 69 104 0.0 2.0 0.00 0.00 0.00 90 1016.2
20260905113316 69 104 0.0 0.0 0.00 0.00 0.00 91 1016.2
20260905112836 68 104 0.0 0.0 0.00 0.00 0.00 91 1016.2
20260905112312 68 104 0.0 0.0 0.00 0.00 0.00 90 1016.2
20260905111827 69 104 0.0 0.0 0.00 0.00 0.00 90 1016.1
20260905111323 69 104 0.0 0.0 0.00 0.00 0.00 91 1016.1
20260905110819 69 104 0.0 0.0 0.00 0.00 0.00 90 1016.2
20260905110315 69 104 0.0 0.0 0.00 0.00 0.00 90 1016.2
20260905105811 69 104 0.0 0.0 0.00 0.00 0.00 89 1016.1
20260905105311 69 104 0.0 2.0 0.00 0.00 0.00 89 1016.2
20260905104828 69 104 0.0 2.0 0.00 0.00 0.00 90 1016.2
20260905104324 69 104 0.0 2.0 0.00 0.00 0.00 90 1016.2
20260905103821 69 104 0.0 2.0 0.00 0.00 0.00 89 1016.2
20260905103318 70 104 0.0 2.0 0.00 0.00 0.00 88 1016.1
20260905102813 70 104 0.0 2.0 0.00 0.00 0.00 89 1016.1
20260905102309 70 104 0.0 0.0 0.00 0.00 0.00 89 1016.1
20260905101824 69 104 0.0 0.0 0.00 0.00 0.00 90 1016.1
20260905101322 69 104 0.0 0.0 0.00 0.00 0.00 90 1016.2
20260905100822 69 104 0.0 0.0 0.00 0.00 0.00 90 1016.2
20260905100317 69 104 0.0 0.0 0.00 0.00 0.00 90 1016.1
20260905095814 69 104 0.0 0.0 0.00 0.00 0.00 89 1016.1
20260905095310 69 104 0.0 0.0 0.00 0.00 0.00 89 1016.1
20260905094827 69 104 0.0 0.0 0.00 0.00 0.00 90 1016.1
20260905094322 69 104 0.0 0.0 0.00 0.00 0.00 90 1016.0
20260905093819 69 104 0.0 0.0 0.00 0.00 0.00 90 1016.0
20260905093341 69 104 0.0 0.0 0.00 0.00 0.00 90 1016.0
20260905092815 69 104 0.0 0.0 0.00 0.00 0.00 90 1015.9
20260905092332 69 104 0.0 0.0 0.00 0.00 0.00 90 1015.9
20260905091849 69 104 0.0 0.0 0.00 0.00 0.00 89 1015.9
20260905091324 69 104 0.0 0.0 0.00 0.00 0.00 89 1016.0
20260905090820 70 104 0.0 0.0 0.00 0.00 0.00 89 1015.8
20260905090316 70 104 0.0 0.0 0.00 0.00 0.00 88 1015.7
20260905085832 70 104 0.0 0.0 0.00 0.00 0.00 88 1015.8
20260905085327 70 104 0.0 0.0 0.00 0.00 0.00 88 1015.8
20260905084827 70 104 0.0 0.0 0.00 0.00 0.00 88 1015.9
20260905084323 70 104 0.0 0.0 0.00 0.00 0.00 87 1015.9
20260905083819 71 104 0.0 0.0 0.00 0.00 0.00 86 1015.9
20260905083315 71 104 0.0 2.0 0.00 0.00 0.00 86 1015.8
20260905082812 71 104 0.0 2.0 0.00 0.00 0.00 86 1015.9
20260905082328 71 104 0.0 0.0 0.00 0.00 0.00 87 1015.9
20260905081824 71 104 0.0 0.0 0.00 0.00 0.00 87 1015.9
20260905081326 71 104 0.0 0.0 0.00 0.00 0.00 87 1015.8
20260905080823 71 104 0.0 0.0 0.00 0.00 0.00 87 1015.8
20260905080339 71 104 0.0 0.0 0.00 0.00 0.00 87 1015.7
20260905075833 71 104 0.0 0.0 0.00 0.00 0.00 88 1015.8
20260905075328 70 104 0.0 0.0 0.00 0.00 0.00 88 1015.9
20260905074842 71 104 0.0 2.0 0.00 0.00 0.00 88 1015.9
20260905074318 71 104 0.0 2.0 0.00 0.00 0.00 87 1015.9
20260905073835 71 104 0.0 0.0 0.00 0.00 0.00 87 1015.9
20260905073311 71 104 0.0 2.0 0.00 0.00 0.00 88 1015.9
20260905072825 71 104 0.0 2.0 0.00 0.00 0.00 88 1015.9
20260905072341 71 104 0.0 0.0 0.00 0.00 0.00 87 1015.9
20260905071820 71 104 0.0 0.0 0.00 0.00 0.00 87 1016.0
20260905071317 71 104 0.0 0.0 0.00 0.00 0.00 87 1016.0
20260905070813 71 104 0.0 0.0 0.00 0.00 0.00 86 1016.1
20260905070349 72 104 0.0 0.0 0.00 0.00 0.00 85 1016.1
20260905065846 72 104 0.0 0.0 0.00 0.00 0.00 86 1016.2
20260905065320 72 104 0.0 0.0 0.00 0.00 0.00 85 1016.2
20260905064817 72 104 0.0 1.0 0.00 0.00 0.00 86 1016.2
20260905064313 72 104 0.0 1.0 0.00 0.00 0.00 87 1016.1
20260905063812 72 104 0.0 0.0 0.00 0.00 0.00 87 1016.0
20260905063330 72 104 0.0 0.0 0.00 0.00 0.00 86 1016.1
20260905062825 72 104 0.0 0.0 0.00 0.00 0.00 86 1016.1
20260905062341 72 104 0.0 0.0 0.00 0.00 0.00 86 1016.1
20260905061816 72 104 0.0 0.0 0.00 0.00 0.00 86 1016.1
20260905061312 73 104 0.0 0.0 0.00 0.00 0.00 85 1016.0
20260905060828 73 104 0.0 0.0 0.00 0.00 0.00 84 1016.1
20260905060324 73 104 0.0 0.0 0.00 0.00 0.00 85 1016.1
20260905055839 73 104 0.0 0.0 0.00 0.00 0.00 85 1016.2
20260905055333 72 104 0.0 0.0 0.00 0.00 0.00 86 1016.2
20260905054812 72 104 0.0 0.0 0.00 0.00 0.00 86 1016.2
20260905054349 73 104 0.0 0.0 0.00 0.00 0.00 85 1016.2
20260905053824 73 104 0.0 0.0 0.00 0.00 0.00 84 1016.2
20260905053321 73 104 0.0 0.0 0.00 0.00 0.00 84 1016.2
20260905052817 73 104 0.0 0.0 0.00 0.00 0.00 84 1016.2
20260905052313 73 104 0.0 0.0 0.00 0.00 0.00 85 1016.2
20260905051809 74 104 0.0 0.0 0.00 0.00 0.00 84 1016.2
20260905051327 74 104 0.0 0.0 0.00 0.00 0.00 83 1016.2
20260905050844 73 104 0.0 0.0 0.00 0.00 0.00 85 1016.2
20260905050323 73 104 0.0 0.0 0.00 0.00 0.00 85 1016.2
20260905045819 73 104 0.0 0.0 0.00 0.00 0.00 85 1016.1
20260905045315 73 104 0.0 0.0 0.00 0.00 0.00 85 1016.1
20260905044811 73 104 0.0 0.0 0.00 0.00 0.00 85 1016.1
20260905044327 74 104 0.0 2.0 0.00 0.00 0.00 85 1016.1
20260905043823 74 104 0.0 2.0 0.00 0.00 0.00 84 1016.2
20260905043319 74 104 0.0 0.0 0.00 0.00 0.00 83 1016.1
20260905042839 74 104 0.0 0.0 0.00 0.00 0.00 85 1016.1
20260905042313 74 104 0.0 0.0 0.00 0.00 0.00 85 1016.1
20260905041830 74 104 0.0 0.0 0.00 0.00 0.00 85 1016.2
20260905041326 74 104 0.0 1.0 0.00 0.00 0.00 84 1016.2
20260905040842 74 104 0.0 1.0 0.00 0.00 0.00 85 1016.2
20260905040318 74 104 0.0 0.0 0.00 0.00 0.00 85 1016.1
20260905035814 74 104 0.0 0.0 0.00 0.00 0.00 84 1016.1
20260905035309 75 104 0.0 0.0 0.00 0.00 0.00 84 1016.1
20260905034826 75 104 0.0 0.0 0.00 0.00 0.00 84 1016.1
20260905034326 75 104 0.0 1.0 0.00 0.00 0.00 84 1016.1
20260905033821 75 104 0.0 1.0 0.00 0.00 0.00 84 1016.1
20260905033317 75 104 0.0 0.0 0.00 0.00 0.00 83 1016.1
20260905032813 75 104 0.0 0.0 0.00 0.00 0.00 83 1016.0
20260905032309 76 104 0.0 0.0 0.00 0.00 0.00 82 1016.0
20260905031825 76 104 0.0 0.0 0.00 0.00 0.00 81 1016.0
20260905031320 76 104 0.0 0.0 0.00 0.00 0.00 82 1016.0
20260905030816 76 104 0.0 0.0 0.00 0.00 0.00 81 1016.0
20260905030316 76 104 0.0 0.0 0.00 0.00 0.00 81 1015.9
20260905025811 76 104 0.0 0.0 0.00 0.00 0.00 82 1015.9
20260905025328 76 104 0.0 0.0 0.00 0.00 0.00 82 1015.7
20260905024824 77 104 0.0 0.0 0.00 0.00 0.00 81 1015.6
20260905024320 77 104 0.0 0.0 0.00 0.00 0.00 81 1015.5
20260905023816 77 104 0.0 0.0 0.00 0.00 0.00 81 1015.5
20260905023312 77 104 0.0 0.0 0.00 0.00 0.00 81 1015.4
20260905022812 77 104 0.0 0.0 0.00 0.00 0.00 81 1015.3
20260905022328 77 104 0.0 0.0 0.00 0.00 0.00 80 1015.2
20260905021825 77 104 0.0 0.0 0.00 0.00 0.00 80 1015.2
20260905021342 77 104 0.0 0.0 0.00 0.00 0.00 80 1015.1
20260905020816 77 104 0.0 2.0 0.00 0.00 0.00 80 1015.0
20260905020311 78 104 0.0 2.0 0.00 0.00 0.00 79 1015.0
20260905015826 78 104 0.0 2.0 0.00 0.00 0.00 79 1014.9
20260905015343 78 104 0.0 0.0 0.00 0.00 0.00 77 1014.8
20260905014818 79 104 0.0 0.0 0.00 0.00 0.00 77 1014.8
20260905014319 79 104 0.0 0.0 0.00 0.00 0.00 76 1014.7
20260905013815 79 104 0.0 0.0 0.00 0.00 0.00 76 1014.7
20260905013328 79 104 0.0 0.0 0.00 0.00 0.00 76 1014.7
20260905012826 79 104 0.0 0.0 0.00 0.00 0.00 76 1014.7
20260905012322 80 104 0.0 0.0 0.00 0.00 0.00 75 1014.7
20260905011818 80 104 0.0 0.0 0.00 0.00 0.00 75 1014.6
20260905011315 81 104 0.0 0.0 0.00 0.00 0.00 75 1014.5
20260905010815 81 104 0.0 0.0 0.00 0.00 0.00 74 1014.5
20260905010313 81 104 0.0 0.0 0.00 0.00 0.00 73 1014.5
20260905005848 82 104 0.0 0.0 0.00 0.00 0.00 72 1014.5
20260905005343 82 104 0.0 2.0 0.00 0.00 0.00 72 1014.5
20260905004336 84 104 0.0 0.0 0.00 0.00 0.00 67 1014.4
20260905003811 85 104 0.0 0.0 0.00 0.00 0.00 66 1014.4
20260905003311 86 104 0.0 0.0 0.00 0.00 0.00 65 1014.3
20260905002828 87 104 0.0 1.0 0.00 0.00 0.00 61 1014.3
20260905002324 89 104 0.0 1.0 0.00 0.00 0.00 59 1014.3
20260905001821 90 104 0.0 2.0 0.00 0.00 0.00 54 1014.4
20260905001317 90 104 0.0 2.0 0.00 0.00 0.00 53 1014.4
20260905000812 91 104 0.0 2.0 0.00 0.00 0.00 53 1014.4
20260905000329 91 104 0.0 1.0 0.00 0.00 0.00 52 1014.4
20260904235828 92 104 0.0 2.0 0.00 0.00 0.00 51 1014.4
20260904235324 92 104 0.0 2.0 0.00 0.00 0.00 51 1014.4
20260904234820 93 65 0.0 2.0 0.00 0.00 0.00 51 1014.4
20260904234336 93 65 0.0 2.0 0.00 0.00 0.00 50 1014.4
20260904233832 93 65 0.0 2.0 0.00 0.00 0.00 49 1014.4
20260904233326 93 103 0.0 3.0 0.00 0.00 0.00 49 1014.4
20260904232822 93 103 0.0 3.0 0.00 0.00 0.00 48 1014.4
20260904232318 93 96 1.0 2.0 0.00 0.00 0.00 48 1014.4
20260904231819 93 104 1.0 3.0 0.00 0.00 0.00 45 1014.4
20260904231316 94 104 1.0 4.0 0.00 0.00 0.00 45 1014.5
20260904230812 95 146 1.0 4.0 0.00 0.00 0.00 45 1014.5
20260904230329 95 118 1.0 3.0 0.00 0.00 0.00 45 1014.5
20260904225823 96 139 1.0 6.0 0.00 0.00 0.00 46 1014.5
20260904225319 96 87 1.0 6.0 0.00 0.00 0.00 45 1014.5
20260904224815 96 38 2.0 7.0 0.00 0.00 0.00 44 1014.5
20260904224312 96 148 3.0 7.0 0.00 0.00 0.00 43 1014.5
20260904223812 97 104 1.0 4.0 0.00 0.00 0.00 44 1014.4
20260904223328 97 107 1.0 4.0 0.00 0.00 0.00 43 1014.4
20260904222823 96 79 2.0 4.0 0.00 0.00 0.00 42 1014.5
20260904222320 97 148 3.0 4.0 0.00 0.00 0.00 43 1014.5
20260904221816 97 142 1.0 9.0 0.00 0.00 0.00 44 1014.5
20260904221312 97 93 2.0 9.0 0.00 0.00 0.00 44 1014.5
20260904220828 97 107 2.0 9.0 0.00 0.00 0.00 43 1014.6
20260904220324 97 186 2.0 6.0 0.00 0.00 0.00 44 1014.7
20260904215823 97 115 2.0 6.0 0.00 0.00 0.00 43 1014.6
20260904215319 97 82 3.0 6.0 0.00 0.00 0.00 43 1014.6
20260904214815 97 132 1.0 6.0 0.00 0.00 0.00 43 1014.7
20260904214311 97 130 3.0 10.0 0.00 0.00 0.00 43 1014.7
20260904213849 97 80 2.0 10.0 0.00 0.00 0.00 42 1014.8
20260904213323 97 74 2.0 6.0 0.00 0.00 0.00 43 1014.8
20260904212821 98 136 1.0 4.0 0.00 0.00 0.00 44 1014.8
20260904212316 97 91 1.0 6.0 0.00 0.00 0.00 44 1014.8
20260904211816 97 219 1.0 6.0 0.00 0.00 0.00 42 1014.8
20260904211334 97 232 2.0 5.0 0.00 0.00 0.00 42 1014.8
20260904210809 97 220 1.0 5.0 0.00 0.00 0.00 42 1014.9
20260904210326 97 187 2.0 5.0 0.00 0.00 0.00 41 1015.0
20260904205842 97 240 2.0 4.0 0.00 0.00 0.00 42 1015.1
20260904205317 97 138 2.0 7.0 0.00 0.00 0.00 41 1015.2